Location: Asheville, NC
(35.6000°N, 82.5500°W)
Time: 10:45:19

N. Korean satellite - Pass Details

Date: 11 December 2017
Orbit: 460 x 512 km, 97.2° (Epoch: 22 March)

Event Time Altitude Azimuth Distance (km) Brightness Sun altitude
Rises 19:02:01 0° 187° (S) 2,559 10.5 -20.6°
Reaches altitude 10° 19:04:12 10° 198° (SSW) 1,691 9.7 -21.1°
Maximum altitude 19:07:31 32° 263° (W) 875 8.5 -21.7°
Drops below altitude 10° 19:10:53 10° 328° (NNW) 1,726 9.6 -22.4°
Sets 19:13:09 0° 338° (NNW) 2,622 10.4 -22.8°
